GW1905 Weather Reports


time (UTC)temp
C
wind
direction
speed
KPH
gust
KPH
rain 1hr
cm
rain 24hr
cm
rain mn
cm
humidity
%
barometer
mb
20260906004215 30 166 1.6 3.2 0.00 0.00 0.00 66 1015.1
20260906003710 30 140 0.0 1.6 0.00 0.00 0.00 67 1015.1
20260906003206 30 133 1.6 1.6 0.00 0.00 0.00 67 1015.2
20260906002705 30 124 0.0 0.0 0.00 0.00 0.00 66 1015.2
20260906002200 30 124 0.0 0.0 0.00 0.00 0.00 66 1015.2
20260906001656 30 139 1.6 3.2 0.00 0.00 0.00 65 1015.2
20260906001155 30 92 0.0 0.0 0.00 0.00 0.00 65 1015.1
20260906000651 30 91 0.0 0.0 0.00 0.00 0.00 64 1015.1
20260906000146 31 91 1.6 1.6 0.00 0.00 0.00 63 1015.2
20260905235645 31 81 1.6 1.6 0.00 0.00 0.00 62 1015.3
20260905235140 31 354 4.8 4.8 0.00 0.00 0.00 59 1015.2
20260905234636 32 294 1.6 1.6 0.00 0.00 0.00 60 1015.1
20260905234131 32 325 1.6 3.2 0.00 0.00 0.00 59 1015.1
20260905233626 32 71 0.0 1.6 0.00 0.00 0.00 59 1015.3
20260905233120 32 241 0.0 1.6 0.00 0.00 0.00 57 1015.1
20260905232616 33 164 0.0 0.0 0.00 0.00 0.00 57 1015.3
20260905232111 33 241 0.0 1.6 0.00 0.00 0.00 57 1015.2
20260905231606 33 240 0.0 1.6 0.00 0.00 0.00 56 1014.9
20260905231102 33 242 0.0 1.6 0.00 0.00 0.00 55 1015.1
20260905230603 33 31 0.0 1.6 0.00 0.00 0.00 55 1015.1
20260905230101 33 91 0.0 1.6 0.00 0.00 0.00 54 1014.8
20260905225554 33 239 0.0 1.6 0.00 0.00 0.00 54 1014.8
20260905225049 34 87 0.0 1.6 0.00 0.00 0.00 54 1014.6
20260905224544 34 107 1.6 3.2 0.00 0.00 0.00 54 1014.9
20260905224043 34 137 0.0 3.2 0.00 0.00 0.00 52 1015.0
20260905223541 35 58 1.6 4.8 0.00 0.00 0.00 52 1015.1
20260905223036 35 267 1.6 1.6 0.00 0.00 0.00 52 1014.8
20260905222531 35 109 1.6 3.2 0.00 0.00 0.00 52 1015.1
20260905222026 35 113 1.6 4.8 0.00 0.00 0.00 51 1014.8
20260905221522 35 148 0.0 3.2 0.00 0.00 0.00 51 1015.0
20260905221018 35 285 3.2 4.8 0.00 0.00 0.00 50 1014.6
20260905220514 35 91 3.2 8.0 0.00 0.00 0.00 49 1014.7
20260905220010 35 180 0.0 4.8 0.00 0.00 0.00 49 1014.7
20260905215504 35 158 3.2 4.8 0.00 0.00 0.00 49 1014.8
20260905215000 35 80 3.2 4.8 0.00 0.00 0.00 49 1014.9
20260905214456 35 202 0.0 1.6 0.00 0.00 0.00 50 1014.7
20260905213956 35 93 3.2 4.8 0.00 0.00 0.00 49 1014.7
20260905213452 36 36 1.6 4.8 0.00 0.00 0.00 49 1014.7
20260905212947 36 317 4.8 4.8 0.00 0.00 0.00 47 1014.7
20260905212442 36 171 1.6 1.6 0.00 0.00 0.00 47 1014.7
20260905211941 36 259 1.6 8.0 0.00 0.00 0.00 46 1014.9
20260905211437 35 300 3.2 8.0 0.00 0.00 0.00 47 1014.8
20260905210932 35 122 1.6 3.2 0.00 0.00 0.00 48 1015.0
20260905210427 35 34 1.6 3.2 0.00 0.00 0.00 48 1014.9
20260905205926 36 117 4.8 11.3 0.00 0.00 0.00 48 1015.1
20260905205421 36 100 6.4 9.7 0.00 0.00 0.00 46 1015.2
20260905204920 36 208 0.0 3.2 0.00 0.00 0.00 46 1015.1
20260905204417 36 122 1.6 3.2 0.00 0.00 0.00 46 1015.4
20260905203915 36 195 1.6 1.6 0.00 0.00 0.00 50 1015.5
20260905203411 35 307 3.2 4.8 0.00 0.00 0.00 51 1015.6
20260905202906 36 47 1.6 4.8 0.00 0.00 0.00 48 1015.4
20260905202401 37 133 3.2 8.0 0.00 0.00 0.00 47 1015.5
20260905201856 38 200 1.6 3.2 0.00 0.00 0.00 44 1015.6
20260905201351 38 108 0.0 3.2 0.00 0.00 0.00 43 1015.4
20260905200846 36 185 1.6 1.6 0.00 0.00 0.00 45 1015.8
20260905200342 35 270 0.0 1.6 0.00 0.00 0.00 49 1015.7
20260905195840 36 305 3.2 3.2 0.00 0.00 0.00 47 1015.8
20260905195335 35 74 3.2 4.8 0.00 0.00 0.00 48 1016.0
20260905194831 35 284 0.0 1.6 0.00 0.00 0.00 49 1015.9
20260905194331 35 312 1.6 1.6 0.00 0.00 0.00 49 1016.1
20260905193830 36 69 3.2 8.0 0.00 0.00 0.00 47 1016.2
20260905193325 36 311 8.0 11.3 0.00 0.00 0.00 47 1016.2
20260905192821 37 261 4.8 4.8 0.00 0.00 0.00 46 1016.1
20260905192317 37 309 6.4 8.0 0.00 0.00 0.00 46 1016.2
20260905191815 36 37 6.4 11.3 0.00 0.00 0.00 45 1016.5
20260905191314 36 352 4.8 8.0 0.00 0.00 0.00 47 1016.5
20260905190813 36 318 4.8 9.7 0.00 0.00 0.00 46 1016.7
20260905190313 36 162 1.6 4.8 0.00 0.00 0.00 48 1016.6
20260905185811 36 331 4.8 9.7 0.00 0.00 0.00 47 1016.5
20260905185307 35 315 3.2 9.7 0.00 0.00 0.00 50 1016.6
20260905184801 35 260 0.0 3.2 0.00 0.00 0.00 50 1016.5
20260905184259 35 317 3.2 4.8 0.00 0.00 0.00 51 1016.8
20260905183753 36 357 6.4 11.3 0.00 0.00 0.00 49 1016.7
20260905183248 36 93 4.8 8.0 0.00 0.00 0.00 49 1016.6
20260905182747 36 226 0.0 4.8 0.00 0.00 0.00 47 1016.8
20260905182242 36 193 4.8 9.7 0.00 0.00 0.00 47 1016.9
20260905181738 35 265 3.2 4.8 0.00 0.00 0.00 49 1017.2
20260905181237 35 278 4.8 12.9 0.00 0.00 0.00 52 1017.3
20260905180732 36 272 9.7 16.1 0.00 0.00 0.00 50 1017.1
20260905180227 36 222 1.6 8.0 0.00 0.00 0.00 50 1017.1
20260905175727 36 220 4.8 4.8 0.00 0.00 0.00 50 1017.4
20260905175221 35 97 1.6 4.8 0.00 0.00 0.00 51 1017.3
20260905174716 35 293 6.4 8.0 0.00 0.00 0.00 51 1017.4
20260905174212 35 286 4.8 11.3 0.00 0.00 0.00 53 1017.6
20260905173709 35 262 1.6 8.0 0.00 0.00 0.00 51 1017.7
20260905173204 35 81 1.6 3.2 0.00 0.00 0.00 51 1017.7
20260905172703 35 301 8.0 11.3 0.00 0.00 0.00 52 1017.8
20260905172157 36 295 4.8 8.0 0.00 0.00 0.00 50 1017.8
20260905171653 35 151 1.6 4.8 0.00 0.00 0.00 51 1017.7
20260905171149 35 292 3.2 9.7 0.00 0.00 0.00 55 1017.7
20260905170646 35 279 4.8 9.7 0.00 0.00 0.00 53 1017.7
20260905170141 35 302 6.4 9.7 0.00 0.00 0.00 55 1017.8
20260905165640 35 253 3.2 8.0 0.00 0.00 0.00 53 1017.9
20260905165136 35 90 3.2 4.8 0.00 0.00 0.00 54 1018.0
20260905164631 35 187 0.0 9.7 0.00 0.00 0.00 56 1017.9
20260905164130 35 87 4.8 11.3 0.00 0.00 0.00 54 1017.9
20260905163626 35 301 4.8 8.0 0.00 0.00 0.00 56 1018.0
20260905163123 34 70 3.2 16.1 0.00 0.00 0.00 57 1018.1
20260905162619 33 312 3.2 12.9 0.00 0.00 0.00 56 1018.1
20260905162118 34 333 6.4 9.7 0.00 0.00 0.00 57 1018.1
20260905161617 33 264 4.8 8.0 0.00 0.00 0.00 57 1018.1
20260905161115 33 123 4.8 11.3 0.00 0.00 0.00 56 1018.1
20260905160615 34 327 4.8 8.0 0.00 0.00 0.00 57 1018.3
20260905160109 33 340 1.6 8.0 0.00 0.00 0.00 60 1018.3
20260905155604 33 313 4.8 8.0 0.00 0.00 0.00 59 1018.3
20260905155103 33 341 9.7 11.3 0.00 0.00 0.00 60 1018.4
20260905154557 33 266 8.0 9.7 0.00 0.00 0.00 59 1018.5
20260905154053 33 298 8.0 8.0 0.00 0.00 0.00 59 1018.5
20260905153548 33 294 6.4 11.3 0.00 0.00 0.00 59 1018.4
20260905153048 33 248 4.8 4.8 0.00 0.00 0.00 60 1018.4
20260905152543 33 308 4.8 4.8 0.00 0.00 0.00 59 1018.5
20260905152038 33 319 4.8 9.7 0.00 0.00 0.00 60 1018.6
20260905151533 32 333 4.8 8.0 0.00 0.00 0.00 59 1018.5
20260905151029 32 307 4.8 8.0 0.00 0.00 0.00 60 1018.4
20260905150524 32 281 1.6 9.7 0.00 0.00 0.00 62 1018.5
20260905150021 32 337 1.6 9.7 0.00 0.00 0.00 61 1018.6
20260905145515 32 233 6.4 9.7 0.00 0.00 0.00 60 1018.6
20260905145015 32 276 1.6 1.6 0.00 0.00 0.00 63 1018.9
20260905144510 31 32 0.0 8.0 0.00 0.00 0.00 67 1018.5
20260905144009 31 307 3.2 9.7 0.00 0.00 0.00 66 1018.7
20260905143508 31 2 6.4 9.7 0.00 0.00 0.00 66 1018.6
20260905143003 31 290 1.6 4.8 0.00 0.00 0.00 67 1018.7
20260905142501 30 285 1.6 4.8 0.00 0.00 0.00 70 1018.7
20260905141957 30 348 4.8 8.0 0.00 0.00 0.00 70 1018.9
20260905141452 30 297 1.6 3.2 0.00 0.00 0.00 70 1018.7
20260905140948 30 219 0.0 1.6 0.00 0.00 0.00 69 1018.9
20260905140443 30 318 1.6 1.6 0.00 0.00 0.00 72 1018.7
20260905135942 30 290 1.6 3.2 0.00 0.00 0.00 74 1018.6
20260905135438 29 292 1.6 3.2 0.00 0.00 0.00 75 1018.7
20260905134933 29 325 1.6 3.2 0.00 0.00 0.00 75 1018.5
20260905134432 29 145 0.0 1.6 0.00 0.00 0.00 75 1018.9
20260905133931 27 288 0.0 1.6 0.00 0.00 0.00 79 1018.9
20260905133426 27 284 0.0 1.6 0.00 0.00 0.00 81 1018.7
20260905132926 27 290 1.6 1.6 0.00 0.00 0.00 81 1019.0
20260905132421 27 301 3.2 3.2 0.00 0.00 0.00 82 1018.9
20260905131916 26 269 1.6 1.6 0.00 0.00 0.00 83 1018.9
20260905131412 26 271 1.6 1.6 0.00 0.00 0.00 83 1019.0
20260905130906 26 283 1.6 1.6 0.00 0.00 0.00 83 1018.9
20260905130406 26 277 1.6 3.2 0.00 0.00 0.00 83 1018.7
20260905125901 26 205 0.0 1.6 0.00 0.00 0.00 85 1018.9
20260905125355 26 186 0.0 0.0 0.00 0.00 0.00 86 1019.0
20260905124851 25 186 0.0 1.6 0.00 0.00 0.00 87 1018.9
20260905124348 25 186 0.0 0.0 0.00 0.00 0.00 89 1019.0
20260905123848 25 186 0.0 0.0 0.00 0.00 0.00 89 1019.1
20260905123344 25 186 0.0 0.0 0.00 0.00 0.00 90 1018.9
20260905122844 25 186 0.0 1.6 0.00 0.00 0.00 90 1019.0
20260905122343 24 184 0.0 0.0 0.00 0.00 0.00 91 1019.1
20260905121839 24 183 0.0 0.0 0.00 0.00 0.00 93 1019.0
20260905121335 23 183 0.0 0.0 0.00 0.00 0.00 94 1018.9
20260905120834 23 183 0.0 0.0 0.00 0.00 0.00 95 1019.0
20260905120328 23 183 0.0 0.0 0.00 0.00 0.00 95 1018.7
20260905115824 23 183 0.0 0.0 0.00 0.00 0.00 96 1018.7
20260905115318 22 183 0.0 0.0 0.00 0.00 0.00 96 1018.4
20260905114817 22 183 0.0 0.0 0.00 0.00 0.00 96 1018.5
20260905114317 22 183 0.0 0.0 0.00 0.00 0.00 96 1018.4
20260905113816 22 182 0.0 0.0 0.00 0.00 0.00 96 1018.3
20260905113312 22 182 0.0 0.0 0.00 0.00 0.00 96 1018.4
20260905112807 22 182 0.0 0.0 0.00 0.00 0.00 96 1018.3
20260905112305 22 182 0.0 0.0 0.00 0.00 0.00 96 1018.3
20260905111756 22 182 0.0 0.0 0.00 0.00 0.00 96 1018.3
20260905111251 22 182 0.0 0.0 0.00 0.00 0.00 96 1018.2
20260905110750 22 182 0.0 0.0 0.00 0.00 0.00 96 1018.1
20260905110244 22 182 0.0 0.0 0.00 0.00 0.00 96 1018.1
20260905105740 22 182 0.0 0.0 0.00 0.00 0.00 95 1018.2
20260905105239 22 182 0.0 0.0 0.00 0.00 0.00 95 1018.0
20260905104734 22 182 0.0 0.0 0.00 0.00 0.00 95 1018.0
20260905104230 22 182 0.0 0.0 0.00 0.00 0.00 95 1017.9
20260905103725 22 182 0.0 0.0 0.00 0.00 0.00 95 1017.8
20260905103221 22 182 0.0 0.0 0.00 0.00 0.00 95 1017.9
20260905102716 22 182 0.0 0.0 0.00 0.00 0.00 95 1017.8
20260905102213 22 182 0.0 0.0 0.00 0.00 0.00 95 1017.6
20260905101711 22 182 0.0 0.0 0.00 0.00 0.00 95 1017.7
20260905101210 22 182 0.0 0.0 0.00 0.00 0.00 95 1017.7
20260905100706 22 182 0.0 0.0 0.00 0.00 0.00 95 1017.6
20260905100201 22 182 0.0 0.0 0.00 0.00 0.00 95 1017.7
20260905095701 22 182 0.0 0.0 0.00 0.00 0.00 95 1017.5
20260905095155 22 182 0.0 0.0 0.00 0.00 0.00 95 1017.5
20260905094650 22 182 0.0 0.0 0.00 0.00 0.00 95 1017.7
20260905094149 23 182 0.0 0.0 0.00 0.00 0.00 95 1017.5
20260905093644 22 182 0.0 0.0 0.00 0.00 0.00 95 1017.6
20260905093140 22 182 0.0 0.0 0.00 0.00 0.00 95 1017.4
20260905092640 23 182 0.0 0.0 0.00 0.00 0.00 94 1017.5
20260905092135 23 182 0.0 0.0 0.00 0.00 0.00 94 1017.5
20260905091630 23 182 0.0 0.0 0.00 0.00 0.00 94 1017.3
20260905091130 23 182 0.0 0.0 0.00 0.00 0.00 94 1017.5
20260905090625 23 182 0.0 0.0 0.00 0.00 0.00 94 1017.4
20260905090120 23 182 0.0 0.0 0.00 0.00 0.00 94 1017.3
20260905085619 23 182 0.0 0.0 0.00 0.00 0.00 94 1017.3
20260905085114 23 182 0.0 0.0 0.00 0.00 0.00 94 1017.5
20260905084613 23 182 0.0 0.0 0.00 0.00 0.00 94 1017.3
20260905084109 23 182 0.0 0.0 0.00 0.00 0.00 94 1017.3
20260905083603 23 182 0.0 0.0 0.00 0.00 0.00 94 1017.4
20260905083100 23 182 0.0 0.0 0.00 0.00 0.00 94 1017.5
20260905082555 23 182 0.0 0.0 0.00 0.00 0.00 94 1017.5
20260905082051 23 182 0.0 0.0 0.00 0.00 0.00 94 1017.5
20260905081550 23 182 0.0 0.0 0.00 0.00 0.00 94 1017.3
20260905081044 23 182 0.0 0.0 0.00 0.00 0.00 93 1017.5
20260905080538 23 182 0.0 0.0 0.00 0.00 0.00 93 1017.4
20260905080033 23 182 0.0 0.0 0.00 0.00 0.00 93 1017.4
20260905075526 23 182 0.0 0.0 0.00 0.00 0.00 93 1017.4
20260905075021 23 182 0.0 0.0 0.00 0.00 0.00 93 1017.5
20260905074516 23 182 0.0 0.0 0.00 0.00 0.00 92 1017.4
20260905074011 23 182 0.0 0.0 0.00 0.00 0.00 92 1017.5
20260905073506 23 182 0.0 0.0 0.00 0.00 0.00 92 1017.6
20260905073001 23 182 0.0 0.0 0.00 0.00 0.00 92 1017.5
20260905072455 23 182 0.0 0.0 0.00 0.00 0.00 92 1017.5
20260905071951 23 182 0.0 0.0 0.00 0.00 0.00 92 1017.5
20260905071448 23 182 0.0 0.0 0.00 0.00 0.00 92 1017.6
20260905070947 23 182 0.0 0.0 0.00 0.00 0.00 92 1017.6
20260905070444 24 182 0.0 0.0 0.00 0.00 0.00 91 1017.7
20260905065938 24 182 0.0 0.0 0.00 0.00 0.00 91 1017.9
20260905065436 24 182 0.0 0.0 0.00 0.00 0.00 91 1017.8
20260905064931 24 182 0.0 0.0 0.00 0.00 0.00 90 1017.7
20260905064427 24 182 0.0 0.0 0.00 0.00 0.00 90 1018.0
20260905063927 24 182 0.0 0.0 0.00 0.00 0.00 90 1017.9
20260905063422 24 182 0.0 0.0 0.00 0.00 0.00 90 1017.9
20260905062918 24 182 0.0 0.0 0.00 0.00 0.00 89 1018.0
20260905062412 24 182 0.0 0.0 0.00 0.00 0.00 88 1018.3
20260905061907 25 182 0.0 0.0 0.00 0.00 0.00 88 1018.1
20260905061401 25 182 0.0 0.0 0.00 0.00 0.00 88 1018.0
20260905060901 25 182 0.0 0.0 0.00 0.00 0.00 88 1018.2
20260905060357 25 182 0.0 0.0 0.00 0.00 0.00 88 1018.3
20260905055856 25 182 0.0 0.0 0.00 0.00 0.00 89 1018.2
20260905055352 25 182 0.0 0.0 0.00 0.00 0.00 89 1018.2
20260905054851 25 182 0.0 0.0 0.00 0.00 0.00 88 1018.4
20260905054347 25 182 0.0 0.0 0.00 0.00 0.00 88 1018.4
20260905053847 25 182 0.0 0.0 0.00 0.00 0.00 88 1018.2
20260905053341 25 182 0.0 0.0 0.00 0.00 0.00 87 1018.4
20260905052837 25 182 0.0 0.0 0.00 0.00 0.00 87 1018.3
20260905052331 25 182 0.0 0.0 0.00 0.00 0.00 86 1018.3
20260905051831 25 182 0.0 0.0 0.00 0.00 0.00 86 1018.1
20260905051327 25 182 0.0 0.0 0.00 0.00 0.00 87 1018.1
20260905050824 25 183 0.0 0.0 0.00 0.00 0.00 87 1018.2
20260905050320 25 183 0.0 0.0 0.00 0.00 0.00 86 1018.1
20260905045814 25 183 0.0 0.0 0.00 0.00 0.00 86 1018.1
20260905045309 25 182 0.0 0.0 0.00 0.00 0.00 85 1018.1
20260905044805 25 182 0.0 0.0 0.00 0.00 0.00 85 1018.3
20260905044300 25 181 0.0 0.0 0.00 0.00 0.00 85 1018.1
20260905043759 26 181 0.0 0.0 0.00 0.00 0.00 84 1018.2
20260905043254 26 182 0.0 0.0 0.00 0.00 0.00 83 1018.2
20260905042753 26 182 0.0 0.0 0.00 0.00 0.00 82 1018.1
20260905042252 26 182 0.0 0.0 0.00 0.00 0.00 80 1018.1
20260905041748 26 182 0.0 0.0 0.00 0.00 0.00 80 1018.1
20260905041244 26 182 0.0 0.0 0.00 0.00 0.00 80 1018.0
20260905040739 27 182 0.0 0.0 0.00 0.00 0.00 79 1018.0
20260905040237 27 182 0.0 0.0 0.00 0.00 0.00 79 1018.2
20260905035732 27 182 0.0 0.0 0.00 0.00 0.00 78 1018.2
20260905035229 27 183 0.0 0.0 0.00 0.00 0.00 78 1018.1
20260905034725 27 183 0.0 0.0 0.00 0.00 0.00 77 1018.3
20260905034225 27 182 0.0 0.0 0.00 0.00 0.00 77 1018.2
20260905033724 27 180 0.0 0.0 0.00 0.00 0.00 77 1018.3
20260905033219 27 180 0.0 0.0 0.00 0.00 0.00 76 1018.4
20260905032719 27 180 0.0 0.0 0.00 0.00 0.00 76 1018.3
20260905032214 28 180 0.0 1.6 0.00 0.00 0.00 75 1018.4
20260905031709 28 180 0.0 1.6 0.00 0.00 0.00 75 1018.3
20260905031205 28 182 0.0 1.6 0.00 0.00 0.00 74 1018.3
20260905030700 28 181 0.0 1.6 0.00 0.00 0.00 74 1018.4
20260905030155 28 187 1.6 1.6 0.00 0.00 0.00 74 1018.4
20260905025650 28 178 1.6 3.2 0.00 0.00 0.00 74 1018.3
20260905025146 28 162 0.0 1.6 0.00 0.00 0.00 74 1018.3
20260905024641 28 184 1.6 3.2 0.00 0.00 0.00 74 1018.5
20260905024136 28 155 1.6 3.2 0.00 0.00 0.00 75 1018.4
20260905023632 28 186 0.0 3.2 0.00 0.00 0.00 76 1018.4
20260905023131 27 199 0.0 1.6 0.00 0.00 0.00 78 1018.3
20260905022630 27 196 0.0 1.6 0.00 0.00 0.00 80 1018.3
20260905022125 27 194 0.0 0.0 0.00 0.00 0.00 80 1018.3
20260905021620 27 179 1.6 3.2 0.00 0.00 0.00 80 1018.5
20260905021116 27 155 0.0 0.0 0.00 0.00 0.00 79 1018.4
20260905020615 27 155 0.0 0.0 0.00 0.00 0.00 79 1018.3
20260905020110 27 155 0.0 0.0 0.00 0.00 0.00 79 1018.3
20260905015609 28 155 0.0 0.0 0.00 0.00 0.00 78 1018.3
20260905015103 28 155 0.0 1.6 0.00 0.00 0.00 77 1018.2
20260905014557 28 155 0.0 0.0 0.00 0.00 0.00 77 1018.3
20260905014053 28 155 0.0 0.0 0.00 0.00 0.00 76 1018.1
20260905013549 28 155 0.0 0.0 0.00 0.00 0.00 76 1018.1
20260905013045 28 155 0.0 0.0 0.00 0.00 0.00 75 1018.2
20260905012544 28 155 0.0 0.0 0.00 0.00 0.00 75 1018.1
20260905012042 28 155 0.0 0.0 0.00 0.00 0.00 73 1018.1
20260905011537 29 155 0.0 0.0 0.00 0.00 0.00 73 1018.2
20260905011033 29 155 0.0 0.0 0.00 0.00 0.00 72 1018.2
20260905010527 29 155 0.0 0.0 0.00 0.00 0.00 71 1018.2
20260905010024 30 155 0.0 0.0 0.00 0.00 0.00 71 1018.2
20260905005519 30 155 0.0 0.0 0.00 0.00 0.00 70 1018.3
20260905005015 30 155 0.0 0.0 0.00 0.00 0.00 67 1018.2
20260905004514 30 155 0.0 1.6 0.00 0.00 0.00 66 1018.2